Burien, Washington, United States
Lat: 47.47N, Lon: 122.35W
Wx Zone: WAZ508
Local Info
Past Weather Observations for Today

NOTE: This archive is for the closest National Weather Service station to Burien. Information may differ from the station used for current weather conditions.

Time Weather Temperature Dewpoint Humidity Pressure Winds Precip Visibility
21:53
Mostly Cloudy
46°F / 8°C 43°F / 6°C 87% 30.18 in
(1022 mb)
S 11.5 mph
(S 19 kph)
0.02 in
(0.51 mm)
10SM
20:53
Partly Cloudy
46°F / 8°C 43°F / 6°C 87% 30.15 in
(1021 mb)
S 10.4 mph
(S 17 kph)
0.00 in
(0.00 mm)
10SM
19:53
Mostly Cloudy
Light Rain
46°F / 8°C 45°F / 7°C 93% 30.09 in
(1019 mb)
SSE 19.6 mph
(SSE 32 kph)
0.00 in
(0.00 mm)
5SM
18:53
Mostly Cloudy
48°F / 9°C 43°F / 6°C 82% 30.06 in
(1018 mb)
SW 15 mph
(SW 24 kph)
- 10SM
17:53
Mostly Cloudy
50°F / 10°C 45°F / 7°C 82% 30.04 in
(1017 mb)
SW 18.4 mph
(SW 30 kph)
- 10SM
16:53
Mostly Cloudy
50°F / 10°C 45°F / 7°C 82% 30.01 in
(1016 mb)
SW 20.7 mph
(SW 33 kph)
0.10 in
(2.54 mm)
10SM
16:37
Overcast
Light Rain
48°F / 9°C 46°F / 8°C 94% 30.01 in
(1016 mb)
SW 13.8 mph
(SW 22 kph)
0.10 in
(2.54 mm)
10SM
16:07
Mostly Cloudy
Light Rain
52°F / 11°C 46°F / 8°C 82% 29.98 in
(1015 mb)
SW 15 mph
(SW 24 kph)
0.02 in
(0.51 mm)
2SM
15:53
Mostly Cloudy
52°F / 11°C 48°F / 9°C 88% 29.98 in
(1015 mb)
SW 13.8 mph
(SW 22 kph)
0.04 in
(1.02 mm)
10SM
14:53
Overcast
52°F / 11°C 46°F / 8°C 82% 29.95 in
(1014 mb)
SW 12.7 mph
(SW 20 kph)
- 10SM
13:53
Overcast
50°F / 10°C 48°F / 9°C 94% 29.92 in
(1013 mb)
SSE 10.4 mph
(SSE 17 kph)
0.02 in
(0.51 mm)
7SM
13:13
Overcast
Light Rain
48°F / 9°C 46°F / 8°C 94% 29.92 in
(1013 mb)
SE 10.4 mph
(SE 17 kph)
0.02 in
(0.51 mm)
3SM
12:53
Overcast
Rain
46°F / 8°C 45°F / 7°C 93% 29.92 in
(1013 mb)
S 4.6 mph
(S 7 kph)
0.09 in
(2.29 mm)
2SM
12:23
Overcast
Light Rain
46°F / 8°C 45°F / 7°C 93% 29.89 in
(1012 mb)
S 8.1 mph
(S 13 kph)
0.05 in
(1.27 mm)
3SM
12:06
Overcast
Light Rain
46°F / 8°C 45°F / 7°C 93% 29.89 in
(1012 mb)
ESE 11.5 mph
(ESE 19 kph)
0.02 in
(0.51 mm)
6SM
11:53
Overcast
Light Rain
46°F / 8°C 43°F / 6°C 87% 29.89 in
(1012 mb)
SE 11.5 mph
(SE 19 kph)
0.12 in
(3.05 mm)
5SM
10:53
Overcast
Rain
46°F / 8°C 41°F / 5°C 82% 29.89 in
(1012 mb)
SSE 10.4 mph
(SSE 17 kph)
0.15 in
(3.81 mm)
5SM
10:33
Overcast
Rain
46°F / 8°C 43°F / 6°C 87% 29.89 in
(1012 mb)
SSW 10.4 mph
(SSW 17 kph)
0.12 in
(3.05 mm)
3SM
10:18
Overcast
Heavy Rain
46°F / 8°C 43°F / 6°C 87% 29.89 in
(1012 mb)
SSW 18.4 mph
(SSW 30 kph)
0.04 in
(1.02 mm)
2SM
09:53
Overcast
48°F / 9°C 39°F / 4°C 71% 29.83 in
(1010 mb)
W 9.2 mph
(W 15 kph)
- 10SM
08:53
Mostly Cloudy
52°F / 11°C 37°F / 3°C 58% 29.8 in
(1009 mb)
W 11.5 mph
(W 19 kph)
- 10SM
07:53
Overcast
46°F / 8°C 36°F / 2°C 66% 29.77 in
(1008 mb)
SE 11.5 mph
(SE 19 kph)
- 10SM
06:53
Mostly Cloudy
46°F / 8°C 37°F / 3°C 71% 29.8 in
(1009 mb)
SE 6.9 mph
(SE 11 kph)
- 10SM
05:53
Mostly Cloudy
45°F / 7°C 39°F / 4°C 81% 29.8 in
(1009 mb)
SE 3.5 mph
(SE 6 kph)
- 10SM
04:53
Mostly Cloudy
43°F / 6°C 37°F / 3°C 81% 29.8 in
(1009 mb)
Calm - 10SM
03:53
Partly Cloudy
43°F / 6°C 37°F / 3°C 81% 29.8 in
(1009 mb)
NW 3.5 mph
(NW 6 kph)
- 10SM
02:53
Partly Cloudy
46°F / 8°C 36°F / 2°C 66% 29.8 in
(1009 mb)
ENE 5.8 mph
(ENE 9 kph)
- 10SM
01:53
Partly Cloudy
46°F / 8°C 36°F / 2°C 66% 29.83 in
(1010 mb)
NE 5.8 mph
(NE 9 kph)
- 10SM
00:53
Partly Cloudy
46°F / 8°C 36°F / 2°C 66% 29.86 in
(1011 mb)
E 3.5 mph
(E 6 kph)
- 10SM
Time Weather Temperature Dewpoint Humidity Pressure Winds Precip Visibility


Weather for websites

WeatherForYou.com, LLC is not responsible for any damages or problems caused by this service. Current weather conditions are obtained from the closest station including government and personal stations which may have varying degrees of accuracy. Weather forecasts are derived from the NOAA NDFD. Like all things, this site belongs to Jesus Christ... He just trusts me to maintain it. If you have any questions or comments email webmaster@weatherforyou.com

Copyright © 2014, WeatherForYou.com LLC. All rights reserved.